Location: Cetoras
(49.4560°N, 14.9577°E)
Time: 15:32:42
(UTC+00:00)

Daily predictions for brighter satellites

Satellite Brightness Start Highest point End
(mag) Time Altitude Azimuth Time Altitude Azimuth Time Altitude Azimuth
NOSS 3-1 (A) 4.3 15:22:56 10° NW 15:30:20 83° SW 15:39:04 10° SE
NOSS 2-2 (E) 4.3 15:28:56 10° NW 15:33:57 68° NE 15:40:59 10° SE
NOSS 2-2 (D) 4.3 15:29:13 10° NW 15:34:02 58° NE 15:40:43 10° ESE
Cosmos 1500 4.3 15:31:42 10° NNE 15:34:44 23° ENE 15:37:44 10° SE
Cosmos 1500 Rocket 3.6 15:31:02 10° N 15:35:27 60° ENE 15:39:47 10° SSE
Cosmos 2084 4.4 15:31:56 10° NW 15:36:07 54° SW 15:40:29 10° SSE
Cosmos 2221 2.6 15:35:39 10° S 15:39:56 84° W 15:44:17 10° N
Sich 1 3.7 15:36:21 10° N 15:40:16 33° ENE 15:44:10 10° SE
CZ-4B R/B 4.2 15:36:18 10° ESE 15:40:19 22° ENE 15:44:18 10° N
SL-08 R/B 3.3 15:35:54 10° NNE 15:40:36 64° ESE 15:45:11 10° S
Cosmos 1782 4.0 15:38:02 10° SE 15:41:14 24° E 15:44:27 10° NE
Envisat 4.4 15:37:04 10° S 15:41:53 43° W 15:46:45 10° NNW
USA 307 3.4 15:37:53 10° WNW 15:42:00 44° N 15:46:05 10° ENE
Cosmos 1464 Rocket 4.2 15:36:06 10° S 15:42:30 87° W 15:48:55 10° N
Cosmos 2360 4.2 15:37:50 10° NNW 15:43:38 80° ENE 15:49:21 10° SSE
CZ-2D R/B 4.5 15:41:12 10° ESE 15:44:06 21° ENE 15:47:01 10° NNE
Nadezhda 4 Rocket 4.1 15:37:57 10° N 15:44:19 87° E 15:50:40 10° S
NOAA 6 4.3 15:39:31 10° SE 15:44:24 46° ENE 15:49:17 10° N
SL-24 R/B - RUBIN 2 3.6 15:41:09 10° NW 15:45:45 61° NE 15:50:02 10° SE
Cosmos 1805 Rocket 3.7 15:43:18 10° N 15:47:31 48° ENE 15:51:43 10° SSE
Cosmos 1340 Rocket 3.1 15:46:08 10° NNW 15:50:14 74° W 15:54:17 10° S
Meteor 1-20 Rocket 4.3 15:44:24 10° N 15:50:17 77° ENE 15:56:08 10° SSE
Cosmos 2360 Rocket 3.8 15:49:18 10° N 15:52:30 15° NNE 15:55:33 10° ENE
Cosmos 858 Rocket 4.5 15:48:39 10° NNW 15:53:57 72° ENE 15:59:13 10° SSE
Cosmos 1842 Rocket 3.9 15:50:00 10° SSW 15:54:27 71° WNW 15:58:57 10° N
CZ-4C R/B 3.6 15:51:05 10° N 15:54:54 66° WNW 15:58:30 10° SSW
Cosmos 540 Rocket 3.7 15:50:38 10° S 15:55:32 49° ESE 16:00:28 10° NNE
ERBS 3.7 15:53:06 10° WNW 15:55:47 24° NNW 15:58:19 11° NE
Lacrosse 5 rocket 1.7 15:55:54 10° NW 15:59:36 43° NNE 16:03:29 10° E
ATLAS CENTAUR R/B 3.6 15:57:47 10° WNW 16:00:47 18° NNW 16:03:55 10° NNE
Cosmos 1428 Rocket 4.5 15:55:10 10° N 16:01:16 64° ENE 16:07:23 10° SSE
Cosmos 1092 Rocket 4.0 15:56:03 10° N 16:02:26 74° E 16:08:44 10° SSE
Cosmos 1666 3.6 16:00:42 10° NNE 16:03:54 26° ENE 16:07:03 10° SE
USA 308 3.4 16:00:36 10° WNW 16:04:41 45° N 16:08:06 14° ENE
COSMOS 2455 3.1 16:02:08 10° S 16:07:55 52° ESE 16:13:30 11° NE
Spot 1 4.4 16:06:13 10° NNE 16:10:59 86° WNW 16:15:58 10° SSW
Cosmos 1697 Rocket 3.4 16:08:50 10° NW 16:14:22 60° WSW 16:19:52 10° S
Cosmos 2322 Rocket 3.2 16:09:51 10° NNW 16:14:31 25° NE 16:18:22 13° E
CZ-4C R/B 2.9 16:09:17 10° NW 16:16:18 75° NE 16:24:39 10° SE
PSLV R/B 3.8 16:15:34 10° SSE 16:19:09 52° ENE 16:22:49 10° N
Cosmos 468 Rocket 4.3 16:14:02 10° SSW 16:19:11 70° WNW 16:24:25 10° NNE
Cosmos 1980 Rocket 2.2 16:14:00 10° NNW 16:19:43 85° ENE 16:25:21 10° SSE
Meteor 2-21 4.4 16:14:36 10° N 16:20:44 77° E 16:26:46 10° SSE
Cosmos 921 Rocket 4.5 16:18:02 10° SE 16:20:45 17° E 16:21:05 17° E
COSMO-SKYMED 1 3.6 16:22:41 17° NE 16:24:51 25° E 16:28:26 10° SSE
Cosmos 1627 Rocket 4.5 16:19:10 10° N 16:25:22 90° WSW 16:31:30 10° S
ATLAS CENTAUR R/B 2.8 16:16:01 10° SW 16:25:49 85° SSE 16:28:49 20° ENE
Cosmos 2369 4.0 16:20:43 10° NNW 16:26:28 72° WSW 16:32:09 10° SSE
Cosmos 1933 3.5 16:24:08 10° SSW 16:28:10 73° W 16:32:13 10° N
Cosmos 1633 Rocket 3.2 16:24:57 10° N 16:29:12 47° ENE 16:33:26 10° SSE
Cosmos 2279 Rocket 4.1 16:24:03 10° SSE 16:29:59 50° E 16:35:56 10° NNE
USA 305 3.2 16:26:10 10° WNW 16:30:19 49° N 16:32:39 23° ENE
CZ-4B R/B 4.3 16:27:03 10° S 16:30:48 39° W 16:34:25 10° NNW
Cosmos 1812 2.9 16:28:04 10° SSE 16:31:46 47° E 16:34:50 14° NNE
CORIOLIS 4.2 16:26:24 10° SSE 16:31:49 84° WSW 16:37:17 10° NNW
Cosmos 1818 3.6 16:27:17 10° NW 16:32:44 61° NE 16:38:08 10° SE
SL-16 R/B 2.7 16:28:40 10° NNW 16:33:58 38° NE 16:39:03 11° ESE
Meteor 1-5 Rocket 4.3 16:28:04 10° N 16:34:01 63° ENE 16:39:52 10° SSE
YAOGAN 1 4.1 16:36:55 19° NE 16:36:55 19° NE 16:38:54 10° NNE
AQUARIUS 4.4 16:31:54 10° S 16:36:22 75° WSW 16:40:54 10° NNW
Cosmos 1151 Rocket 3.2 16:32:47 10° S 16:36:58 51° E 16:40:56 12° NNE
USA 267 3.3 16:32:05 18° ENE 16:37:12 81° SE 16:43:45 10° SW
Cosmos 2082 Rocket 2.2 16:32:38 10° SSW 16:38:17 72° ESE 16:43:01 15° NNE
SMAP 3.7 16:36:40 10° S 16:41:14 59° W 16:45:52 10° NNW
Meteor 1-14 Rocket 4.2 16:37:41 10° N 16:43:34 80° ENE 16:49:30 10° SSE
ARGOS 3.2 16:42:29 10° SE 16:47:44 55° ENE 16:53:00 10° N
MOS 1-B 4.3 16:42:05 10° SSE 16:47:51 85° ENE 16:53:40 10° NNW
Landsat 5 4.4 16:48:37 27° ESE 16:48:37 27° ESE 16:51:35 10° SSE
Cosmos 2333 Rocket 3.6 16:44:48 10° N 16:48:52 19° NE 16:49:04 19° NE
Cosmos 1634 Rocket 4.1 16:43:16 10° SSW 16:49:36 81° W 16:55:59 10° N
Cosmos 2278 3.8 16:44:01 10° NNW 16:49:46 81° WSW 16:55:27 10° SSE
Cosmos 2026 Rocket 4.4 16:43:54 10° NNW 16:49:57 63° W 16:55:55 10° S
GEOS 3 Rocket 4.1 16:49:28 27° E 16:51:36 39° NE 16:56:22 10° NNW
Cosmos 2208 Rocket 4.2 16:48:49 10° S 16:54:02 53° ESE 16:57:09 24° NE
Cosmos 1933 Rocket 4.4 16:50:24 10° N 16:53:15 29° NE 16:53:15 29° NE
Cosmos 44 Rocket 3.2 16:49:51 10° NW 16:54:49 81° NE 16:59:24 11° SE
Cosmos 1833 Rocket 3.6 16:50:47 10° SW 16:56:11 47° NW 17:01:21 11° NNE
Cosmos 2150 Rocket 4.0 16:51:19 10° NNW 16:56:26 55° ENE 17:01:33 10° SE
Cosmos 1666 Rocket 3.7 16:52:26 10° NNW 16:56:54 77° W 17:01:17 10° S
Cosmos 841 Rocket 3.7 16:52:07 10° SSW 16:57:16 69° WNW 17:01:45 14° NNE
MOS 1-B Rocket 4.0 16:51:36 10° NNE 16:57:32 72° ESE 17:04:18 10° S
Okean O Rocket 1.6 16:53:24 10° SSE 16:57:47 61° ENE 17:02:13 10° N
Cosmos 1470 Rocket 3.6 16:55:54 10° N 17:00:19 59° ENE 17:04:44 10° SSE
Cosmos 1328 Rocket 3.5 16:56:16 10° S 17:00:40 64° E 17:03:23 22° NNE
H-2A R/B 2.1 16:56:16 10° S 17:01:24 76° WSW 17:06:27 10° NNW
USA 306 3.0 16:58:27 10° WNW 17:02:40 59° NNE 17:03:36 46° ENE
COSMOS 2406 3.9 16:59:44 10° SW 17:05:19 51° NW 17:10:10 14° NNE
Cosmos 2219 Rocket 3.7 17:01:28 10° N 17:04:47 19° NNE 17:04:47 19° NNE
ISS -1.5 17:02:53 10° W 17:05:41 24° SW 17:08:21 11° SSE
CZ-2C R/B 2.5 17:02:59 15° NNE 17:07:14 65° ESE 17:12:22 10° S
ATLAS 2AS CENTAUR R/B 4.0 17:01:36 10° NW 17:07:56 27° N 17:10:37 22° NE
Meteor 2-8 Rocket 4.3 17:02:12 10° S 17:08:18 71° E 17:14:28 10° NNE
Cosmos 1125 Rocket 3.4 17:03:29 10° NNW 17:08:43 64° ENE 17:13:57 10° SE
USA 32 4.5 17:04:28 10° SSE 17:08:49 37° E 17:08:49 37° E
USA 234 3.8 17:05:35 10° SE 17:12:01 57° SW 17:18:27 10° WNW
SKYMED 2 3.4 17:11:18 34° NNE 17:13:09 73° ESE 17:17:28 10° S
Meteor 1-27 Rocket 4.2 17:09:47 10° SSE 17:14:11 37° ESE 17:14:11 37° ESE
Cosmos 1900 4.2 17:12:48 10° SSW 17:17:39 74° ESE 17:18:52 50° NE
Cosmos 1655 Rocket 3.9 17:12:17 10° N 17:18:44 77° E 17:25:05 10° SSE
CZ-4B R/B 3.4 17:15:01 10° S 17:20:24 71° WSW 17:25:44 10° NNW
USA 307 2.8 17:18:04 10° WNW 17:22:19 66° NNE 17:22:25 65° NNE
Cosmos 2180 Rocket 4.4 17:16:52 10° S 17:23:13 90° WNW 17:29:31 10° N
Meteor 2-6 Rocket 4.2 17:17:43 10° S 17:23:28 88° W 17:28:31 13° NNE
SJ-11-01 4.4 17:19:58 10° S 17:24:43 75° WSW 17:29:29 10° NNW
ATLAS 5 CENTAUR R/B 1.6 17:19:42 10° NW 17:26:21 88° NNE 17:26:27 85° ESE
deb Chang Zheng 4 4.2 17:26:20 10° S 17:30:34 56° WSW 17:34:50 10° NNW
Cosmos 2237 4.1 17:28:33 10° NNW 17:34:15 63° ENE 17:34:56 58° E
Cosmos 2360 Rocket 2.4 17:32:22 10° NNW 17:37:21 49° NE 17:37:21 49° NE
Lacrosse 5 rocket 2.0 17:34:56 10° WNW 17:38:45 48° SW 17:39:13 45° SSW
ATLAS CENTAUR R/B 4.0 17:39:31 10° NNW 17:41:01 12° N 17:41:01 12° N
USA 308 3.3 17:40:40 10° WNW 17:44:08 57° NW 17:44:08 57° NW
Cosmos 1515 Rocket 3.7 17:40:51 10° SSW 17:44:48 69° SSW 17:44:48 69° SSW
Meteor 1-11 Rocket 3.9 17:46:43 10° NNW 17:52:21 72° W 17:58:03 10° S
Meteor 1-10 Rocket 4.4 17:47:15 10° SSW 17:53:00 72° WNW 17:56:15 27° N
COSMOS 2455 3.9 17:48:24 10° WSW 17:54:03 40° NW 17:56:40 27° N
COSMOS 2428 4.3 17:49:41 10° NNW 17:52:06 21° N 17:52:06 21° N
Cosmos 921 Rocket 3.8 17:54:27 10° SW 17:57:55 49° W 17:57:55 49° W
Cosmos 2322 Rocket 2.2 17:53:29 10° NNW 17:59:13 78° WSW 18:00:15 60° S
COSMO-SKYMED 1 3.8 17:59:54 32° NNW 18:01:08 39° WNW 18:05:10 10° SW
CZ-4C R/B 4.4 17:58:08 10° NW 18:04:44 36° WSW 18:12:12 10° S
USA 305 4.4 18:06:07 10° WNW 18:08:39 34° WNW 18:08:39 34° WNW
SL-16 R/B 3.2 18:12:49 10° NW 18:18:11 44° WSW 18:21:04 25° SSW
USA 267 3.6 18:19:25 52° N 18:20:03 54° NNW 18:26:23 10° W
Cosmos 2237 Rocket 4.5 18:17:19 10° N 18:18:00 12° N 18:18:00 12° N
Cosmos 2082 Rocket 3.9 18:18:11 10° W 18:22:55 27° NW 18:24:53 22° NNW
GEOS 3 Rocket 4.4 18:30:35 49° W 18:30:35 49° W 18:34:39 10° NW
Cosmos 2333 Rocket 3.7 18:28:27 10° NNW 18:31:06 28° NNW 18:31:06 28° NNW
Okean O Rocket 4.4 18:31:35 10° SW 18:34:32 17° W 18:37:31 10° NW
Cosmos 2219 Rocket 4.2 18:44:46 10° NNW 18:46:30 20° NNW 18:46:30 20° NNW
ATLAS 2AS CENTAUR R/B 4.0 18:53:38 10° NW 18:58:02 33° NNW 18:58:02 33° NNW
Cosmos 2360 Rocket 4.3 19:16:45 10° NW 19:19:09 22° WNW 19:19:09 22° WNW
